Погода в Каобанге

Вьетнам     22°39′43″N   106°16′06″E
темп.,
°C
ветер,
м/с
пор.,
м/с
влажн.,
%
обл.,
%
осадки,
мм/ч
давл.,
гПа
погр.,
м
23 октября, сб
сб2301:00+13с1378100 0.0 1023267
04:00+13с1276100 0.0 1022142
07:00+13ссв117799 0.0 102495
10:00+15ссв126995 0.0 1025553
13:00+15сз017551 0.0 1022167
16:00+18юв126599 0.0 1020553
19:00+13всв118534 0.0 102221
22:00+13св118475 0.0 102420
24 октября, вс
вс2401:00+14св018198 0.0 102231
04:00+14ссв1179100 0.0 102139
07:00+15ссв1178100 0.0 102358
10:00+16с1375100 0.0 1024301
13:00+22всв125770 0.0 10191117
16:00+20юв227048 0.0 1018376
19:00+15в118875 0.0 102021
22:00+14ссв118899 0.0 102113
25 октября, пн
пн2501:00+16ссв1180100 0.0 102021
04:00+16ссв1180100 0.0 101917
07:00+16ссв1179100 0.0 102022
10:00+18св126973 0.0 1021548
13:00+22вюв115744 0.0 10171209
16:00+21юв227073 0.0 1015658
19:00+17вюв138419 0.0 1017100
22:00+15всв118918 0.0 101814
26 октября, вт
вт2601:00+15св119042 0.0 101811
04:00+14ссв119055 0.0 101712
07:00+16св018454 0.0 101874
10:00+22ююв22635 0.0 1018838
13:00+23юв226173 0.0 10151275
16:00+21вюв2376100 0.0 1014288
19:00+19всв1386100 0.1 101795
22:00+18св1185100 0.0 101846
27 октября, ср
ср2701:00+18св1185100 0.0 101842
04:00+18ссв1184100 0.0 101848
07:00+18ссв128499 0.0 1019110
10:00+22ссв236340 0.0 10191019
13:00+22всв1265100 0.0 10161125
16:00+20всв1280100 0.1 101666
19:00+18св128299 0.1 101859
22:00+18ссв118296 0.0 101942